Location: Isola Pescaroli
(45.0500°N, 10.1667°E)
Time: 01:23:09
(UTC+00:00)

SL-4 R/B - Pass Details

Date: 21 June 2021
Orbit: 428 x 662 km, 51.6° (Epoch: 29 July)

Event Time Altitude Azimuth Distance (km) Brightness Sun altitude
Rises 21:46:08 0° 245° (WSW) 2,768 5.6 -18.2°
Reaches altitude 10° 21:48:29 10° 247° (WSW) 1,831 4.7 -18.3°
Maximum altitude 21:52:38 72° 332° (NNW) 552 2.1 -18.6°
Drops below altitude 10° 21:56:28 10° 58° (ENE) 1,694 4.6 -18.8°
Sets 21:58:34 0° 61° (ENE) 2,540 5.5 -19.0°
